Regional Weather Roundup
Issued by NWS Bismarck, ND

Home | Current Version | Previous Version | Text Only | Print | Product List | Glossary On
Versions: 1 2 3 4 5 6 7 8 9 10 11 12 13 14 15 16 17 18 19 20 21 22 23 24 25 26 27 28 29 30 31 32 33 34 35 36 37 38 39 40 41 42 43 44 45 46 47 48 49 50
000
ASUS43 KBIS 281601
RWRBIS

NWR BROADCAST TEXT
NATIONAL WEATHER SERVICE BISMARCK ND
1100 AM CDT SAT MAR 28 2015

NOTE: "FAIR" INDICATES FEW OR NO CLOUDS BELOW 12,000 FEET WITH NO
SIGNIFICANT WEATHER AND/OR OBSTRUCTIONS TO VISIBILITY.


CITY           SKY/WX    TMP DP  RH WIND       PRES   REMARKS
WILLISTON      SUNNY     52  38  58 S9        29.67F
MINOT          SUNNY     40  33  76 SE13      29.77F
MINOT AFB      MOSUNNY   37  37 100 SE15      29.76F
BISMARCK       CLOUDY    32  32 100 SE13      29.90F
DICKINSON      SUNNY     55  37  50 S24       29.75F
GARRISON         N/A     34  33  96 S13       29.81F
HETTINGER ARPT SUNNY     54  36  50 S17G26    29.83F
JAMESTOWN      SUNNY     34  34 100 S20       29.96F
CARRINGTON     FAIR      36  36 100 S22       29.92F
HAZEN          FAIR      45  34  65 S13       29.82F
OAKES            N/A     36  32  87 SE15      30.02F
$$

CITY           SKY/WX    TMP DP  RH WIND       PRES   REMARKS
GRAND FORKS    MOSUNNY   37  26  64 S21G26    30.02F
GRAND FORKS AF NOT AVBL
DEVILS LAKE    PTSUNNY   34  30  86 S17       29.90F
FARGO          SUNNY     39  26  59 S16       30.07F
GWINNER          N/A     36  32  87 S13         N/A
ROLLA          FOG       28  28 100 S21G26    29.84F VSB<1/4 WCI  15
$$

CITY           SKY/WX    TMP DP  RH WIND       PRES   REMARKS
ABERDEEN       SUNNY     41  29  62 S15       30.03F
MOBRIDGE       SUNNY     41  32  70 S16       29.92F
BUFFALO          N/A     54  36  50 S13       29.75F
RAPID CITY     SUNNY     56  36  47 SE9       29.86F
GLASGOW        SUNNY     52  36  54 SE12      29.61F
SIDNEY         SUNNY     52  37  58 S14       29.68F
WOLF POINT     MOSUNNY   52  39  61 CALM      29.63F
GLENDIVE         N/A     54  37  54 S15       29.71F
MILES CITY     SUNNY     56  35  45 SE10      29.71F
BAKER          SUNNY     60  38  43 S10       29.76F
$$

CITY           SKY/WX    TMP DP  RH WIND       PRES   REMARKS
BILLINGS       PTSUNNY   64  33  31 SW14      29.74F
GREAT FALLS    PTSUNNY   59  36  42 W29G35    29.67R
$$



USA.gov is the U.S. government's official web portal to all federal, state and local government web resources and services.